Time,TemperatureF,DewpointF,PressureIn,WindDirection,WindDirectionDegrees,WindSpeedMPH,WindSpeedGustMPH,Humidity,HourlyPrecipIn,Conditions,Clouds,dailyrainin,SoftwareType,DateUTC
2013-03-28 00:04:00,33.1,12.6,29.91,ESE,110,7.0,12.1,42,0.00,,,-99.99,FreeWX 2.04,2013-03-28 06:04:00,
2013-03-28 00:14:00,33.1,12.6,29.91,ESE,110,7.0,11.0,42,0.00,,,-99.99,FreeWX 2.04,2013-03-28 06:14:00,
2013-03-28 00:24:00,33.1,12.6,29.91,ESE,103,7.0,11.2,42,0.00,,,-99.99,FreeWX 2.04,2013-03-28 06:24:00,
2013-03-28 00:34:00,32.7,12.2,29.91,East,98,6.0,9.6,42,0.00,,,-99.99,FreeWX 2.04,2013-03-28 06:34:00,
2013-03-28 00:44:00,33.1,12.6,29.91,ESE,102,6.0,9.6,42,0.00,,,-99.99,FreeWX 2.04,2013-03-28 06:44:00,
2013-03-28 00:54:00,33.3,12.2,29.91,ESE,106,7.0,11.0,41,0.00,,,-99.99,FreeWX 2.04,2013-03-28 06:54:00,
2013-03-28 01:04:00,33.4,12.4,29.91,ESE,105,7.0,11.0,41,0.00,,,-99.99,FreeWX 2.04,2013-03-28 07:04:00,
2013-03-28 01:14:00,33.4,12.4,29.91,ESE,105,7.0,11.0,41,0.00,,,-99.99,FreeWX 2.04,2013-03-28 07:14:00,
2013-03-28 01:24:00,33.4,12.4,29.91,ESE,106,7.0,11.2,41,0.00,,,-99.99,FreeWX 2.04,2013-03-28 07:24:00,
2013-03-28 01:34:00,33.4,12.4,29.91,ESE,106,7.0,12.5,41,0.00,,,-99.99,FreeWX 2.04,2013-03-28 07:34:00,
2013-03-28 01:44:00,33.3,12.2,29.91,ESE,107,7.0,13.4,41,0.00,,,-99.99,FreeWX 2.04,2013-03-28 07:44:00,
2013-03-28 01:54:00,33.4,11.7,29.91,ESE,113,7.0,11.6,40,0.00,,,-99.99,FreeWX 2.04,2013-03-28 07:54:00,
2013-03-28 02:04:00,33.6,11.8,29.91,ESE,106,8.0,12.5,40,0.00,,,-99.99,FreeWX 2.04,2013-03-28 08:04:00,
2013-03-28 02:14:00,33.3,12.2,29.91,ESE,110,7.0,11.2,41,0.00,,,-99.99,FreeWX 2.04,2013-03-28 08:14:00,
2013-03-28 02:24:00,33.3,12.2,29.91,ESE,115,7.0,12.1,41,0.00,,,-99.99,FreeWX 2.04,2013-03-28 08:24:00,
2013-03-28 02:34:00,33.6,11.8,29.91,ESE,116,8.0,12.5,40,0.00,,,-99.99,FreeWX 2.04,2013-03-28 08:34:00,
2013-03-28 02:44:00,33.8,12.0,29.91,ESE,110,7.0,11.0,40,0.00,,,-99.99,FreeWX 2.04,2013-03-28 08:44:00,
2013-03-28 02:54:00,33.6,11.8,29.91,ESE,107,7.0,11.0,40,0.00,,,-99.99,FreeWX 2.04,2013-03-28 08:54:00,
2013-03-28 03:04:00,33.6,11.8,29.91,ESE,103,6.0,10.5,40,0.00,,,-99.99,FreeWX 2.04,2013-03-28 09:04:00,
2013-03-28 03:14:00,33.4,12.4,29.91,East,94,4.0,8.7,41,0.00,,,-99.99,FreeWX 2.04,2013-03-28 09:14:00,
2013-03-28 03:24:00,33.6,11.8,29.91,ESE,113,4.0,9.2,40,0.00,,,-99.99,FreeWX 2.04,2013-03-28 09:24:00,
2013-03-28 03:34:00,32.7,11.7,29.91,ESE,102,3.0,8.3,41,0.00,,,-99.99,FreeWX 2.04,2013-03-28 09:34:00,
2013-03-28 03:44:00,32.5,12.0,29.94,ESE,106,3.0,7.4,42,0.00,,,-99.99,FreeWX 2.04,2013-03-28 09:44:00,
2013-03-28 03:54:00,32.7,12.2,29.91,ESE,106,4.0,7.4,42,0.00,,,-99.99,FreeWX 2.04,2013-03-28 09:54:00,
2013-03-28 04:04:00,32.2,12.2,29.91,East,98,5.0,10.1,43,0.00,,,-99.99,FreeWX 2.04,2013-03-28 10:04:00,
2013-03-28 04:14:00,32.0,12.6,29.91,East,86,5.0,7.8,44,0.00,,,-99.99,FreeWX 2.04,2013-03-28 10:14:00,
2013-03-28 04:24:00,32.9,12.4,29.91,East,96,6.0,11.0,42,0.00,,,-99.99,FreeWX 2.04,2013-03-28 10:24:00,
2013-03-28 04:34:00,32.9,12.4,29.91,ESE,103,7.0,11.2,42,0.00,,,-99.99,FreeWX 2.04,2013-03-28 10:34:00,
2013-03-28 04:44:00,33.1,12.0,29.91,ESE,105,7.0,12.1,41,0.00,,,-99.99,FreeWX 2.04,2013-03-28 10:44:00,
2013-03-28 05:05:00,32.7,12.2,29.91,ESE,102,7.0,11.0,42,0.00,,,-99.99,FreeWX 2.04,2013-03-28 11:05:00,
2013-03-28 05:15:00,32.7,12.2,29.91,ESE,104,7.0,12.1,42,0.00,,,-99.99,FreeWX 2.04,2013-03-28 11:15:00,
2013-03-28 05:25:00,33.1,12.0,29.91,ESE,116,7.0,11.2,41,0.00,,,-99.99,FreeWX 2.04,2013-03-28 11:25:00,
2013-03-28 05:35:00,33.3,11.7,29.91,ESE,111,7.0,13.0,40,0.00,,,-99.99,FreeWX 2.04,2013-03-28 11:35:00,
2013-03-28 05:45:00,33.3,11.7,29.91,ESE,107,7.0,11.6,40,0.00,,,-99.99,FreeWX 2.04,2013-03-28 11:45:00,
2013-03-28 05:55:00,32.0,11.5,29.91,East,91,6.0,11.0,42,0.00,,,-99.99,FreeWX 2.04,2013-03-28 11:55:00,
2013-03-28 06:05:00,31.6,11.7,29.91,East,82,6.0,10.1,43,0.00,,,-99.99,FreeWX 2.04,2013-03-28 12:05:00,
2013-03-28 06:15:00,32.4,11.8,29.91,ESE,103,5.0,9.2,42,0.00,,,-99.99,FreeWX 2.04,2013-03-28 12:15:00,
2013-03-28 06:25:00,32.5,12.0,29.91,ESE,102,6.0,9.6,42,0.00,,,-99.99,FreeWX 2.04,2013-03-28 12:25:00,
2013-03-28 06:35:00,32.5,12.0,29.91,East,101,6.0,8.7,42,0.00,,,-99.99,FreeWX 2.04,2013-03-28 12:35:00,
2013-03-28 06:45:00,31.8,11.3,29.91,East,93,5.0,9.2,42,0.00,,,-99.99,FreeWX 2.04,2013-03-28 12:45:00,
2013-03-28 06:55:00,31.3,11.8,29.94,East,92,6.0,9.2,44,0.00,,,-99.99,FreeWX 2.04,2013-03-28 12:55:00,
2013-03-28 07:05:00,31.3,11.5,29.94,East,90,5.0,8.3,43,0.00,,,-99.99,FreeWX 2.04,2013-03-28 13:05:00,
2013-03-28 07:15:00,31.8,11.8,29.94,East,101,5.0,8.7,43,0.00,,,-99.99,FreeWX 2.04,2013-03-28 13:15:00,
2013-03-28 07:25:00,31.8,11.3,29.94,ESE,102,4.0,8.3,42,0.00,,,-99.99,FreeWX 2.04,2013-03-28 13:25:00,
2013-03-28 07:35:00,32.2,12.2,29.94,ESE,113,5.0,9.2,43,0.00,,,-99.99,FreeWX 2.04,2013-03-28 13:35:00,
2013-03-28 07:45:00,32.7,12.2,29.94,ESE,109,5.0,8.7,42,0.00,,,-99.99,FreeWX 2.04,2013-03-28 13:45:00,
2013-03-28 07:55:00,31.8,11.8,29.94,East,84,5.0,8.3,43,0.00,,,-99.99,FreeWX 2.04,2013-03-28 13:55:00,
2013-03-28 08:05:00,32.0,12.0,29.94,East,91,4.0,8.3,43,0.00,,,-99.99,FreeWX 2.04,2013-03-28 14:05:00,
2013-03-28 08:15:00,33.1,12.6,29.94,ENE,73,5.0,6.9,42,0.00,,,-99.99,FreeWX 2.04,2013-03-28 14:15:00,
2013-03-28 08:25:00,34.9,13.1,29.94,East,80,2.0,6.3,40,0.00,,,-99.99,FreeWX 2.04,2013-03-28 14:25:00,
2013-03-28 08:35:00,36.3,12.6,29.94,East,90,4.0,6.9,37,0.00,,,-99.99,FreeWX 2.04,2013-03-28 14:35:00,
2013-03-28 08:45:00,36.3,12.0,29.94,East,79,4.0,6.3,36,0.00,,,-99.99,FreeWX 2.04,2013-03-28 14:45:00,
2013-03-28 08:55:00,36.7,10.4,29.94,ENE,71,4.0,6.7,33,0.00,,,-99.99,FreeWX 2.04,2013-03-28 14:55:00,
2013-03-28 09:05:00,35.6,10.0,29.94,North,3,1.0,5.4,34,0.00,,,-99.99,FreeWX 2.04,2013-03-28 15:05:00,
2013-03-28 09:15:00,36.1,11.8,29.94,North,-999,0.0,4.5,36,0.00,,,-99.99,FreeWX 2.04,2013-03-28 15:15:00,
2013-03-28 09:25:00,38.3,10.4,29.94,North,-999,0.0,0.0,31,0.00,,,-99.99,FreeWX 2.04,2013-03-28 15:25:00,
2013-03-28 09:35:00,38.5,10.6,29.94,NNW,335,1.0,4.0,31,0.00,,,-99.99,FreeWX 2.04,2013-03-28 15:35:00,
2013-03-28 09:45:00,38.3,9.7,29.94,NNW,340,3.0,5.8,30,0.00,,,-99.99,FreeWX 2.04,2013-03-28 15:45:00,
2013-03-28 09:55:00,40.3,10.6,29.94,North,-999,0.0,4.5,29,0.00,,,-99.99,FreeWX 2.04,2013-03-28 15:55:00,
2013-03-28 10:05:00,41.4,10.8,29.94,WNW,291,3.0,5.8,28,0.00,,,-99.99,FreeWX 2.04,2013-03-28 16:05:00,
2013-03-28 10:15:00,41.7,11.1,29.94,NW,325,3.0,6.3,28,0.00,,,-99.99,FreeWX 2.04,2013-03-28 16:15:00,
2013-03-28 10:25:00,43.2,13.1,29.94,SW,233,1.0,4.5,29,0.00,,,-99.99,FreeWX 2.04,2013-03-28 16:25:00,
2013-03-28 10:35:00,44.2,13.3,29.97,North,-999,0.0,3.1,28,0.00,,,-99.99,FreeWX 2.04,2013-03-28 16:35:00,
2013-03-28 10:45:00,45.9,11.1,29.97,North,-999,0.0,2.7,24,0.00,,,-99.99,FreeWX 2.04,2013-03-28 16:45:00,
2013-03-28 10:55:00,45.3,11.7,29.97,North,-999,0.0,4.0,25,0.00,,,-99.99,FreeWX 2.04,2013-03-28 16:55:00,
2013-03-28 11:05:00,43.0,9.7,29.97,North,-999,0.0,4.5,25,0.00,,,-99.99,FreeWX 2.04,2013-03-28 17:05:00,
2013-03-28 11:15:00,45.0,11.3,29.97,North,-999,0.0,3.1,25,0.00,,,-99.99,FreeWX 2.04,2013-03-28 17:15:00,
2013-03-28 11:25:00,46.8,11.8,29.97,North,-999,0.0,4.0,24,0.00,,,-99.99,FreeWX 2.04,2013-03-28 17:25:00,
2013-03-28 11:35:00,47.7,9.7,29.97,North,-999,0.0,3.6,21,0.00,,,-99.99,FreeWX 2.04,2013-03-28 17:35:00,
2013-03-28 11:45:00,48.6,8.2,29.97,North,-999,0.0,3.6,19,0.00,,,-99.99,FreeWX 2.04,2013-03-28 17:45:00,
2013-03-28 11:55:00,48.6,8.2,29.97,North,-999,0.0,3.6,19,0.00,,,-99.99,FreeWX 2.04,2013-03-28 17:55:00,
2013-03-28 12:05:00,50.4,9.7,29.97,North,-999,0.0,3.6,19,0.00,,,-99.99,FreeWX 2.04,2013-03-28 18:05:00,
2013-03-28 12:15:00,46.4,6.4,29.97,NW,310,3.0,6.7,19,0.00,,,-99.99,FreeWX 2.04,2013-03-28 18:15:00,
2013-03-28 12:25:00,45.1,8.6,29.97,NW,306,4.0,6.9,22,0.00,,,-99.99,FreeWX 2.04,2013-03-28 18:25:00,
2013-03-28 12:35:00,44.6,10.9,29.97,NW,314,5.0,6.9,25,0.00,,,-99.99,FreeWX 2.04,2013-03-28 18:35:00,
2013-03-28 12:45:00,43.7,12.7,29.97,NW,321,6.0,9.2,28,0.00,,,-99.99,FreeWX 2.04,2013-03-28 18:45:00,
2013-03-28 12:55:00,46.2,14.2,29.97,WNW,282,4.0,6.7,27,0.00,,,-99.99,FreeWX 2.04,2013-03-28 18:55:00,
2013-03-28 13:05:00,49.1,10.9,29.97,SW,236,1.0,5.4,21,0.00,,,-99.99,FreeWX 2.04,2013-03-28 19:05:00,
2013-03-28 13:15:00,49.5,11.1,29.97,SSW,207,2.0,4.9,21,0.00,,,-99.99,FreeWX 2.04,2013-03-28 19:15:00,
2013-03-28 13:25:00,50.4,9.7,29.97,WNW,292,1.0,5.4,19,0.00,,,-99.99,FreeWX 2.04,2013-03-28 19:25:00,
2013-03-28 13:35:00,51.1,9.1,29.94,North,-999,0.0,4.0,18,0.00,,,-99.99,FreeWX 2.04,2013-03-28 19:35:00,
2013-03-28 13:45:00,50.7,10.0,29.94,North,-999,0.0,4.9,19,0.00,,,-99.99,FreeWX 2.04,2013-03-28 19:45:00,
2013-03-28 13:55:00,51.1,9.1,29.94,North,-999,0.0,4.0,18,0.00,,,-99.99,FreeWX 2.04,2013-03-28 19:55:00,
2013-03-28 14:05:00,48.7,8.4,29.94,SSW,204,1.0,5.8,19,0.00,,,-99.99,FreeWX 2.04,2013-03-28 20:05:00,
2013-03-28 14:15:00,49.6,9.1,29.94,WNW,302,2.0,6.3,19,0.00,,,-99.99,FreeWX 2.04,2013-03-28 20:15:00,
2013-03-28 14:25:00,49.6,9.1,29.94,WNW,295,2.0,6.3,19,0.00,,,-99.99,FreeWX 2.04,2013-03-28 20:25:00,
2013-03-28 14:35:00,49.8,9.3,29.94,WSW,250,1.0,6.7,19,0.00,,,-99.99,FreeWX 2.04,2013-03-28 20:35:00,
2013-03-28 14:45:00,51.3,9.1,29.94,WNW,297,1.0,4.9,18,0.00,,,-99.99,FreeWX 2.04,2013-03-28 20:45:00,
2013-03-28 14:55:00,52.5,10.2,29.94,North,-999,0.0,4.5,18,0.00,,,-99.99,FreeWX 2.04,2013-03-28 20:55:00,
2013-03-28 15:05:00,49.1,8.6,29.94,NW,314,3.0,6.7,19,0.00,,,-99.99,FreeWX 2.04,2013-03-28 21:05:00,
2013-03-28 15:15:00,48.6,8.2,29.94,NW,323,4.0,6.9,19,0.00,,,-99.99,FreeWX 2.04,2013-03-28 21:15:00,
2013-03-28 15:25:00,48.9,8.4,29.94,WNW,297,3.0,5.4,19,0.00,,,-99.99,FreeWX 2.04,2013-03-28 21:25:00,
2013-03-28 15:35:00,49.1,8.6,29.94,WSW,247,2.0,6.9,19,0.00,,,-99.99,FreeWX 2.04,2013-03-28 21:35:00,
2013-03-28 15:45:00,51.3,9.1,29.94,WSW,257,2.0,6.3,18,0.00,,,-99.99,FreeWX 2.04,2013-03-28 21:45:00,
2013-03-28 15:55:00,50.2,9.5,29.94,WSW,251,1.0,4.9,19,0.00,,,-99.99,FreeWX 2.04,2013-03-28 21:55:00,
2013-03-28 16:05:00,48.9,8.4,29.94,West,266,1.0,5.8,19,0.00,,,-99.99,FreeWX 2.04,2013-03-28 22:05:00,
2013-03-28 16:16:00,50.4,9.7,29.94,WNW,303,2.0,6.3,19,0.00,,,-99.99,FreeWX 2.04,2013-03-28 22:16:00,
2013-03-28 16:26:00,48.6,8.2,29.94,West,274,4.0,6.9,19,0.00,,,-99.99,FreeWX 2.04,2013-03-28 22:26:00,
2013-03-28 16:36:00,51.1,9.1,29.94,WSW,254,2.0,5.4,18,0.00,,,-99.99,FreeWX 2.04,2013-03-28 22:36:00,
2013-03-28 16:46:00,50.0,9.3,29.94,West,266,2.0,5.8,19,0.00,,,-99.99,FreeWX 2.04,2013-03-28 22:46:00,
2013-03-28 16:56:00,49.1,8.6,29.94,WSW,258,2.0,6.3,19,0.00,,,-99.99,FreeWX 2.04,2013-03-28 22:56:00,
2013-03-28 17:06:00,48.0,7.7,29.94,West,269,5.0,6.9,19,0.00,,,-99.99,FreeWX 2.04,2013-03-28 23:06:00,
2013-03-28 17:16:00,46.4,6.4,29.94,WNW,299,4.0,6.9,19,0.00,,,-99.99,FreeWX 2.04,2013-03-28 23:16:00,
2013-03-28 17:26:00,45.0,6.3,29.94,NW,325,6.0,8.7,20,0.00,,,-99.99,FreeWX 2.04,2013-03-28 23:26:00,
2013-03-28 17:36:00,45.7,5.9,29.94,NW,320,5.0,6.9,19,0.00,,,-99.99,FreeWX 2.04,2013-03-28 23:36:00,
2013-03-28 17:46:00,46.0,6.1,29.94,NW,309,4.0,6.3,19,0.00,,,-99.99,FreeWX 2.04,2013-03-28 23:46:00,
2013-03-28 17:56:00,46.6,6.6,29.94,North,-999,0.0,4.0,19,0.00,,,-99.99,FreeWX 2.04,2013-03-28 23:56:00,
2013-03-28 18:06:00,47.3,10.4,29.94,WSW,248,1.0,4.5,22,0.00,,,-99.99,FreeWX 2.04,2013-03-29 00:06:00,
2013-03-28 18:16:00,46.6,9.9,29.94,SW,236,1.0,4.5,22,0.00,,,-99.99,FreeWX 2.04,2013-03-29 00:16:00,
2013-03-28 18:26:00,45.5,9.0,29.94,North,-999,0.0,3.1,22,0.00,,,-99.99,FreeWX 2.04,2013-03-29 00:26:00,
2013-03-28 18:36:00,45.9,9.1,29.94,North,-999,0.0,0.0,22,0.00,,,-99.99,FreeWX 2.04,2013-03-29 00:36:00,
2013-03-28 18:46:00,44.8,8.2,29.94,North,-999,0.0,3.6,22,0.00,,,-99.99,FreeWX 2.04,2013-03-29 00:46:00,
2013-03-28 18:56:00,43.2,9.7,29.94,North,-999,0.0,2.7,25,0.00,,,-99.99,FreeWX 2.04,2013-03-29 00:56:00,
2013-03-28 19:06:00,42.3,11.5,29.94,North,-999,0.0,0.0,28,0.00,,,-99.99,FreeWX 2.04,2013-03-29 01:06:00,
2013-03-28 19:16:00,41.4,11.5,29.94,North,-999,0.0,0.0,29,0.00,,,-99.99,FreeWX 2.04,2013-03-29 01:16:00,
2013-03-28 19:26:00,40.3,10.6,29.94,North,-999,0.0,0.0,29,0.00,,,-99.99,FreeWX 2.04,2013-03-29 01:26:00,
2013-03-28 19:37:00,39.6,10.8,29.94,North,-999,0.0,3.1,30,0.00,,,-99.99,FreeWX 2.04,2013-03-29 01:37:00,
2013-03-28 19:47:00,38.1,11.7,29.94,SSW,192,2.0,4.9,33,0.00,,,-99.99,FreeWX 2.04,2013-03-29 01:47:00,
2013-03-28 19:57:00,37.9,11.5,29.94,ESE,113,4.0,6.3,33,0.00,,,-99.99,FreeWX 2.04,2013-03-29 01:57:00,
2013-03-28 20:07:00,37.0,11.3,29.97,ESE,113,3.0,6.3,34,0.00,,,-99.99,FreeWX 2.04,2013-03-29 02:07:00,
2013-03-28 20:17:00,36.9,11.8,29.97,ESE,105,4.0,6.3,35,0.00,,,-99.99,FreeWX 2.04,2013-03-29 02:17:00,
2013-03-28 20:27:00,36.7,11.7,29.97,East,98,4.0,6.9,35,0.00,,,-99.99,FreeWX 2.04,2013-03-29 02:27:00,
2013-03-28 20:37:00,36.9,13.1,29.97,East,86,4.0,7.4,37,0.00,,,-99.99,FreeWX 2.04,2013-03-29 02:37:00,
2013-03-28 20:47:00,37.0,13.8,29.97,East,95,4.0,7.8,38,0.00,,,-99.99,FreeWX 2.04,2013-03-29 02:47:00,
2013-03-28 20:57:00,36.9,13.6,29.97,East,96,5.0,7.8,38,0.00,,,-99.99,FreeWX 2.04,2013-03-29 02:57:00,
2013-03-28 21:07:00,37.2,14.0,29.97,East,99,6.0,10.5,38,0.00,,,-99.99,FreeWX 2.04,2013-03-29 03:07:00,
2013-03-28 21:17:00,37.0,14.4,29.97,East,98,6.0,11.2,39,0.00,,,-99.99,FreeWX 2.04,2013-03-29 03:17:00,
2013-03-28 21:27:00,36.3,14.4,29.97,East,94,5.0,9.6,40,0.00,,,-99.99,FreeWX 2.04,2013-03-29 03:27:00,
2013-03-28 21:37:00,36.1,14.2,29.97,East,97,5.0,8.3,40,0.00,,,-99.99,FreeWX 2.04,2013-03-29 03:37:00,
2013-03-28 21:47:00,36.7,14.0,29.97,East,99,6.0,9.2,39,0.00,,,-99.99,FreeWX 2.04,2013-03-29 03:47:00,
2013-03-28 21:57:00,36.5,14.5,29.97,East,100,6.0,8.7,40,0.00,,,-99.99,FreeWX 2.04,2013-03-29 03:57:00,
2013-03-28 22:07:00,36.5,14.5,29.97,ESE,102,6.0,10.5,40,0.00,,,-99.99,FreeWX 2.04,2013-03-29 04:07:00,
2013-03-28 22:17:00,36.7,14.7,29.97,East,99,6.0,9.2,40,0.00,,,-99.99,FreeWX 2.04,2013-03-29 04:17:00,
2013-03-28 22:27:00,37.0,14.9,29.97,East,101,6.0,11.2,40,0.00,,,-99.99,FreeWX 2.04,2013-03-29 04:27:00,
2013-03-28 22:37:00,36.9,14.2,29.97,ESE,102,6.0,10.1,39,0.00,,,-99.99,FreeWX 2.04,2013-03-29 04:37:00,
2013-03-28 22:47:00,36.3,14.4,29.97,ESE,108,6.0,9.2,40,0.00,,,-99.99,FreeWX 2.04,2013-03-29 04:47:00,
2013-03-28 22:57:00,36.1,14.7,29.97,ESE,108,6.0,8.3,41,0.00,,,-99.99,FreeWX 2.04,2013-03-29 04:57:00,
2013-03-28 23:07:00,36.1,14.7,29.97,ESE,105,6.0,9.6,41,0.00,,,-99.99,FreeWX 2.04,2013-03-29 05:07:00,
2013-03-28 23:17:00,35.4,14.7,29.97,East,96,5.0,9.6,42,0.00,,,-99.99,FreeWX 2.04,2013-03-29 05:17:00,
2013-03-28 23:27:00,35.6,14.7,29.97,East,95,6.0,10.1,42,0.00,,,-99.99,FreeWX 2.04,2013-03-29 05:27:00,
2013-03-28 23:38:00,35.8,14.4,29.97,East,100,6.0,10.1,41,0.00,,,-99.99,FreeWX 2.04,2013-03-29 05:38:00,
2013-03-28 23:48:00,35.8,14.4,29.97,ESE,103,7.0,11.6,41,0.00,,,-99.99,FreeWX 2.04,2013-03-29 05:48:00,
2013-03-28 23:58:00,36.0,14.5,29.97,East,99,7.0,11.6,41,0.00,,,-99.99,FreeWX 2.04,2013-03-29 05:58:00,